Tracking 25612 objects as of 21-May-2022
HD Live streaming from Space Station
objects crossing your sky now

COSMOS 1275 DEB

Track COSMOS 1275 DEB now!
10-day predictions


NORAD ID: 12674
Int'l Code: 1981-053AE
Perigee: 921.7 km
Apogee: 1,074.5 km
Inclination: 82.9 °
Period: 104.9 minutes
Semi major axis: 7369 km
RCS: 0.117 m2 (medium)
Launch date: June 4, 1981
Source: Commonwealth of Independent States (former USSR) (CIS)
Launch site: PLESETSK MISSILE AND SPACE COMPLEX (PKMTR)

Note: This is SATELLITE DEBRIS
aabbcc
Your satellite tracking list
Your tracking list is empty




NASA's NSSDC Master Catalog

Two Line Element Set (TLE):
1 12674U 81053AE  22140.46965979  .00000655  00000-0  67380-3 0  9994
2 12674  82.9393  27.9206 0103707 166.0008   8.5958 13.72401377 35436
Source of the keplerian elements: AFSPC